EW9010 Weather Reports


time (UTC)temp
F
wind
direction
speed
knots
gust
knots
rain 1hr
in
rain 24hr
in
rain mn
in
humidity
%
barometer
mb
20260508185504 48 254 13.0 23.5 0.00 0.00 0.00 54 1004.1
20260508185005 48 237 17.4 26.1 0.00 0.00 0.00 54 1003.9
20260508184504 48 229 18.2 26.1 0.00 0.00 0.00 52 1003.9
20260508184005 48 224 13.9 27.8 0.00 0.00 0.00 52 1004.0
20260508183504 48 226 12.2 27.8 0.00 0.00 0.00 53 1003.9
20260508183005 48 232 11.3 28.7 0.00 0.00 0.00 53 1003.9
20260508182504 48 225 15.6 28.7 0.00 0.00 0.00 52 1003.7
20260508182005 48 232 19.1 26.9 0.00 0.00 0.00 53 1004.0
20260508181504 48 239 15.6 25.2 0.00 0.00 0.00 53 1003.9
20260508181005 49 237 14.8 22.6 0.00 0.00 0.00 54 1003.9
20260508180504 48 231 14.8 21.7 0.00 0.00 0.00 54 1003.7
20260508180005 48 225 13.9 25.2 0.00 0.00 0.00 54 1003.6
20260508175504 48 230 14.8 28.7 0.00 0.00 0.00 54 1003.9
20260508175005 48 239 19.1 28.7 0.00 0.00 0.00 54 1003.7
20260508174504 48 252 13.0 23.5 0.00 0.00 0.00 56 1003.6
20260508174004 48 248 15.6 29.5 0.00 0.00 0.00 55 1003.6
20260508173008 47 239 19.1 29.5 0.00 0.00 0.00 55 1003.6
20260508172504 47 242 16.5 26.9 0.00 0.00 0.00 55 1003.5
20260508172005 47 237 16.5 26.1 0.00 0.00 0.00 56 1003.7
20260508171504 47 248 13.0 26.1 0.00 0.00 0.00 56 1003.6
20260508170503 47 263 19.1 26.1 0.00 0.00 0.00 57 1003.8
20260508170005 47 252 13.9 23.5 0.00 0.00 0.00 57 1004.1
20260508165504 46 238 10.4 23.5 0.00 0.00 0.00 58 1004.0
20260508165005 46 240 8.7 24.3 0.00 0.00 0.00 58 1004.2
20260508164504 46 231 16.5 24.3 0.00 0.00 0.00 59 1004.2
20260508164008 46 224 9.6 28.7 0.00 0.00 0.00 59 1003.9
20260508163503 46 220 14.8 28.7 0.00 0.00 0.00 58 1004.1
20260508163004 46 215 14.8 27.8 0.00 0.00 0.00 59 1004.2
20260508162504 46 227 16.5 27.8 0.00 0.00 0.00 59 1004.1
20260508162004 46 235 18.2 27.8 0.00 0.00 0.00 58 1004.2
20260508161505 46 230 19.1 30.4 0.00 0.00 0.00 59 1004.1
20260508161005 46 217 14.8 30.4 0.00 0.00 0.00 61 1004.2
20260508160504 46 221 13.0 31.3 0.00 0.00 0.00 60 1004.2
20260508160006 46 234 19.1 31.3 0.00 0.00 0.00 62 1004.0
20260508155504 45 231 9.6 30.4 0.00 0.00 0.00 60 1004.1
20260508155005 45 223 15.6 30.4 0.00 0.00 0.00 60 1004.0
20260508154504 45 227 19.1 29.5 0.00 0.00 0.00 60 1004.0
20260508154005 45 239 19.1 29.5 0.00 0.00 0.00 61 1004.3
20260508153504 45 230 21.7 30.4 0.00 0.00 0.00 61 1004.3
20260508153005 45 220 24.3 30.4 0.00 0.00 0.00 62 1004.6
20260508152504 44 227 14.8 28.7 0.00 0.00 0.00 63 1004.5
20260508152005 44 225 18.2 28.7 0.00 0.00 0.00 64 1004.6
20260508151504 44 219 14.8 26.1 0.00 0.00 0.00 64 1004.7
20260508151005 44 219 13.9 26.1 0.00 0.00 0.00 65 1004.7
20260508150504 43 229 13.0 29.5 0.00 0.00 0.00 65 1004.8
20260508150005 43 234 17.4 29.5 0.00 0.00 0.00 66 1004.8
20260508145504 43 227 13.0 29.5 0.00 0.00 0.00 67 1004.8
20260508145006 43 229 18.2 29.5 0.00 0.00 0.00 67 1004.5
20260508144504 43 235 19.1 29.5 0.00 0.00 0.00 67 1004.8
20260508144005 43 233 18.2 29.5 0.00 0.00 0.00 68 1004.5
20260508143005 43 236 18.2 31.3 0.00 0.00 0.00 68 1004.6
20260508142006 43 232 14.8 29.5 0.00 0.00 0.00 68 1004.3
20260508141504 43 234 19.1 29.5 0.00 0.00 0.00 68 1004.5
20260508140504 42 244 21.7 29.5 0.00 0.00 0.00 68 1004.3
20260508140005 42 237 16.5 36.5 0.00 0.00 0.00 68 1004.4
20260508135505 43 232 20.0 36.5 0.00 0.00 0.00 68 1004.2
20260508135006 43 227 20.0 32.2 0.00 0.00 0.00 68 1003.8
20260508134504 43 228 17.4 31.3 0.00 0.00 0.00 69 1003.8
20260508134005 42 228 14.8 33.0 0.00 0.00 0.00 68 1003.8
20260508133505 43 234 22.6 34.8 0.00 0.00 0.00 69 1003.7
20260508133005 43 242 20.0 34.8 0.00 0.00 0.00 69 1003.7
20260508132504 43 233 14.8 31.3 0.00 0.00 0.00 69 1003.8
20260508131505 43 228 20.9 34.8 0.00 0.00 0.00 69 1004.0
20260508131005 43 232 20.9 34.8 0.00 0.00 0.00 69 1003.9
20260508130504 43 234 18.2 34.8 0.00 0.00 0.00 69 1004.0
20260508125504 43 226 20.0 30.4 0.00 0.00 0.00 70 1004.1
20260508125005 43 253 15.6 32.2 0.00 0.00 0.00 70 1004.1
20260508124504 43 270 15.6 32.2 0.00 0.00 0.00 70 1003.9
20260508124005 43 231 13.9 31.3 0.00 0.00 0.00 71 1004.0
20260508123504 43 228 15.6 31.3 0.00 0.00 0.00 71 1003.8
20260508123005 42 249 13.9 40.0 0.00 0.00 0.00 71 1003.9
20260508122504 42 235 17.4 40.0 0.00 0.00 0.00 72 1004.0
20260508122005 42 221 23.5 30.4 0.00 0.00 0.00 72 1003.8
20260508121504 42 227 15.6 34.8 0.00 0.00 0.00 73 1003.9
20260508121005 42 230 18.2 34.8 0.00 0.00 0.00 74 1003.9
20260508120504 42 232 13.0 25.2 0.00 0.00 0.00 75 1003.9
20260508120005 42 225 14.8 26.1 0.00 0.00 0.00 76 1003.7
20260508115504 42 224 16.5 34.8 0.00 0.00 0.00 76 1003.7
20260508115005 41 229 19.1 34.8 0.00 0.00 0.00 77 1003.7
20260508114503 41 239 13.0 30.4 0.00 0.00 0.00 77 1003.7
20260508114005 41 241 15.6 30.4 0.00 0.00 0.00 77 1003.8
20260508113504 41 253 22.6 30.4 0.00 0.00 0.00 77 1003.7
20260508112504 41 227 20.0 31.3 0.00 0.00 0.00 77 1003.5
20260508111504 41 224 14.8 28.7 0.00 0.00 0.00 77 1003.6
20260508111006 41 218 14.8 28.7 0.00 0.00 0.00 77 1003.5
20260508110504 41 228 18.2 30.4 0.00 0.00 0.00 77 1003.5
20260508110007 42 230 18.2 30.4 0.00 0.00 0.00 77 1003.4
20260508105505 42 236 14.8 26.1 0.00 0.00 0.00 78 1003.7
20260508105007 42 229 19.1 34.8 0.00 0.00 0.00 78 1003.6
20260508104505 42 222 20.0 34.8 0.00 0.00 0.00 77 1003.3
20260508103504 42 297 21.7 29.5 0.00 0.00 0.00 76 1003.4
20260508103006 42 258 16.5 29.5 0.00 0.00 0.00 76 1003.5
20260508102005 42 250 17.4 31.3 0.00 0.00 0.00 76 1003.4
20260508101505 42 246 20.0 31.3 0.00 0.00 0.00 76 1003.3
20260508101006 42 247 18.2 31.3 0.00 0.00 0.00 77 1003.2
20260508100505 42 242 19.1 29.5 0.00 0.00 0.00 78 1003.3
20260508095504 42 254 23.5 31.3 0.00 0.00 0.00 79 1003.3
20260508095006 42 250 17.4 30.4 0.00 0.00 0.00 80 1003.3
20260508094505 42 248 18.2 32.2 0.00 0.00 0.00 80 1003.3
20260508094005 42 252 16.5 32.2 0.00 0.00 0.00 81 1003.2
20260508093504 42 260 15.6 29.5 0.00 0.00 0.00 81 1003.3
20260508092504 42 244 20.0 34.8 0.00 0.00 0.00 82 1003.3
20260508092005 42 238 16.5 30.4 0.00 0.00 0.00 82 1003.1
20260508091505 42 242 17.4 29.5 0.00 0.00 0.00 82 1003.0
20260508090504 42 244 19.1 39.1 0.00 0.00 0.00 83 1003.2
20260508085504 42 237 17.4 27.8 0.00 0.00 0.00 84 1003.0
20260508085005 42 242 13.9 34.8 0.00 0.00 0.00 85 1003.1
20260508084505 42 244 20.9 34.8 0.00 0.00 0.00 86 1003.2
20260508084005 42 248 19.1 31.3 0.00 0.00 0.00 87 1003.1
20260508083505 42 236 15.6 28.7 0.00 0.00 0.00 87 1003.3
20260508083005 42 236 18.2 28.7 0.00 0.00 0.00 88 1003.3
20260508082504 42 235 15.6 26.1 0.00 0.00 0.00 88 1003.5
20260508082005 42 230 16.5 28.7 0.00 0.00 0.00 88 1003.3
20260508081505 42 253 16.5 28.7 0.00 0.00 0.00 88 1003.4
20260508081005 42 250 20.9 27.8 0.00 0.00 0.00 88 1003.5
20260508080504 42 242 18.2 27.8 0.00 0.00 0.00 88 1003.7
20260508080005 43 254 14.8 27.8 0.00 0.00 0.00 88 1003.7
20260508075505 43 254 17.4 26.9 0.00 0.00 0.00 88 1003.5
20260508074504 43 251 13.0 25.2 0.00 0.00 0.00 88 1003.4
20260508074005 43 267 18.2 26.9 0.00 0.00 0.00 88 1003.5
20260508073005 43 257 19.1 26.9 0.00 0.00 0.00 88 1003.6
20260508072504 43 265 20.9 26.9 0.00 0.00 0.00 88 1003.7
20260508072005 43 247 17.4 28.7 0.00 0.00 0.00 88 1003.6
20260508071504 43 251 15.6 28.7 0.00 0.00 0.00 88 1003.6
20260508071005 43 255 14.8 27.8 0.00 0.00 0.00 88 1003.8
20260508070005 44 243 18.2 31.3 0.00 0.00 0.00 87 1003.6
20260508065006 44 254 18.2 33.0 0.00 0.00 0.00 88 1003.7
20260508064504 44 234 20.9 33.0 0.00 0.00 0.00 89 1003.6
20260508064005 44 233 24.3 30.4 0.00 0.00 0.00 89 1003.6
20260508063504 44 242 19.1 27.8 0.00 0.00 0.00 90 1003.7
20260508062504 43 246 21.7 28.7 0.00 0.00 0.00 93 1003.8
20260508062005 43 250 13.0 28.7 0.00 0.00 0.00 93 1003.7
20260508061504 43 262 17.4 26.1 0.00 0.00 0.00 94 1003.7
20260508061004 43 267 18.2 27.8 0.00 0.00 0.00 94 1003.9
20260508060005 43 258 17.4 29.5 0.00 0.00 0.00 94 1003.9
20260508055005 43 253 18.2 26.9 0.00 0.00 0.00 95 1003.9
20260508054504 43 239 16.5 31.3 0.00 0.00 0.00 95 1003.9
20260508054005 43 239 22.6 31.3 0.00 0.00 0.00 95 1003.8
20260508053503 43 244 16.5 28.7 0.00 0.00 0.00 95 1004.1
20260508053005 43 236 14.8 23.5 0.00 0.00 0.00 95 1004.1
20260508051504 44 234 15.6 31.3 0.00 0.00 0.00 94 1004.1
20260508051005 44 232 10.4 31.3 0.00 0.00 0.00 94 1004.2
20260508050504 44 235 23.5 30.4 0.00 0.00 0.00 93 1004.0
20260508050005 44 244 12.2 30.4 0.00 0.00 0.00 93 1004.0
20260508045504 44 256 19.1 26.1 0.00 0.00 0.00 92 1004.0
20260508045005 44 251 14.8 26.1 0.00 0.00 0.00 92 1004.1
20260508044005 44 244 18.2 29.5 0.00 0.00 0.00 90 1004.2
20260508043504 44 242 21.7 29.5 0.00 0.00 0.00 90 1004.0
20260508043005 44 235 15.6 26.9 0.00 0.00 0.00 89 1004.2
20260508042504 45 241 17.4 30.4 0.00 0.00 0.00 89 1004.0
20260508042005 45 242 17.4 30.4 0.00 0.00 0.00 89 1004.0
20260508041504 45 244 20.9 31.3 0.00 0.00 0.00 88 1004.1
20260508041005 45 248 14.8 31.3 0.00 0.00 0.00 88 1003.9
20260508040006 45 244 20.0 31.3 0.00 0.00 0.00 89 1004.0
20260508035504 45 239 22.6 31.3 0.00 0.00 0.00 89 1003.9
20260508035005 45 244 19.1 29.5 0.00 0.00 0.00 89 1004.1
20260508034005 45 254 18.2 29.5 0.00 0.00 0.00 88 1004.1
20260508032506 45 252 20.0 28.7 0.00 0.00 0.00 87 1004.1
20260508032005 45 235 17.4 28.7 0.00 0.00 0.00 87 1004.1
20260508031504 45 241 13.9 26.9 0.00 0.00 0.00 86 1004.1
20260508031006 45 233 16.5 26.1 0.00 0.00 0.00 87 1004.2
20260508030006 44 222 18.2 28.7 0.00 0.00 0.00 87 1004.2
20260508024505 44 254 20.0 29.5 0.00 0.00 0.00 87 1004.3
20260508023507 44 229 19.1 29.5 0.00 0.00 0.00 87 1004.1
20260508023005 44 240 14.8 31.3 0.00 0.00 0.00 87 1004.2
20260508022504 44 231 14.8 31.3 0.00 0.00 0.00 87 1004.1
20260508022006 44 206 20.0 28.7 0.00 0.00 0.00 88 1004.2
20260508021505 44 230 14.8 33.0 0.00 0.00 0.00 88 1004.2
20260508021005 44 252 18.2 33.0 0.00 0.00 0.00 88 1004.5
20260508020504 44 245 13.9 32.2 0.00 0.00 0.00 88 1004.4
20260508020006 44 242 15.6 32.2 0.00 0.00 0.00 88 1004.5
20260508015505 44 233 23.5 32.2 0.00 0.00 0.00 88 1004.5
20260508014504 44 248 13.9 33.9 0.00 0.00 0.00 87 1004.5
20260508014006 45 247 20.0 33.9 0.00 0.00 0.00 87 1004.5
20260508013504 45 240 14.8 27.8 0.00 0.00 0.00 86 1004.5
20260508013006 45 238 17.4 27.8 0.00 0.00 0.00 86 1004.5
20260508012006 45 246 17.4 32.2 0.00 0.00 0.00 86 1004.6
20260508011508 45 239 16.5 26.1 0.00 0.00 0.00 86 1004.8
20260508011005 45 236 17.4 27.8 0.00 0.00 0.00 85 1004.7
20260508010504 45 253 18.2 27.8 0.00 0.00 0.00 84 1004.9
20260508010006 44 262 9.6 23.5 0.00 0.00 0.00 84 1004.7
20260508005505 44 247 16.5 23.5 0.00 0.00 0.00 84 1004.7
20260508004504 44 245 15.6 29.5 0.00 0.00 0.00 83 1004.6
20260508002505 44 257 18.2 29.5 0.00 0.00 0.00 83 1004.7
20260508002006 44 252 18.2 34.8 0.00 0.00 0.00 83 1004.8
20260508001505 44 247 19.1 34.8 0.00 0.00 0.00 83 1004.6
20260508001006 44 247 15.6 31.3 0.00 0.01 0.00 83 1004.5
20260508000505 44 252 22.6 31.3 0.00 0.01 0.00 83 1004.6
20260508000006 44 250 13.9 24.3 0.00 0.01 0.00 83 1004.5
20260507235505 44 238 16.5 24.3 0.00 0.01 0.00 83 1004.8
20260507235006 44 250 14.8 29.5 0.00 0.01 0.00 83 1004.8
20260507233506 45 236 9.6 29.5 0.00 0.03 0.00 86 1005.0
20260507233006 45 231 18.2 33.9 0.00 0.03 0.00 87 1004.9
20260507232507 45 245 22.6 33.9 0.00 0.03 0.00 88 1004.8
20260507232006 45 249 14.8 27.8 0.00 0.03 0.00 88 1004.9
20260507231505 45 248 13.0 26.1 0.00 0.04 0.00 89 1004.8
20260507231006 45 238 17.4 31.3 0.00 0.06 0.00 89 1004.6
20260507230505 45 235 13.0 31.3 0.00 0.08 0.00 90 1004.6
20260507224506 46 347 14.8 29.5 0.00 0.16 0.00 91 1004.8
20260507224006 46 302 25.2 29.5 0.00 0.17 0.00 91 1004.7
20260507223505 46 244 18.2 29.5 0.00 0.18 0.00 91 1004.6
20260507223006 46 347 14.8 26.1 0.00 0.18 0.00 92 1004.6
20260507221504 47 13 18.2 27.8 0.00 0.19 0.00 93 1004.6
20260507221009 47 299 13.0 23.5 0.00 0.19 0.00 93 1004.5
20260507220504 47 332 13.0 21.7 0.00 0.21 0.00 93 1004.6
20260507215005 48 332 13.9 22.6 0.00 0.27 0.00 92 1004.3
20260507214504 48 349 10.4 29.5 0.00 0.38 0.00 92 1004.1
20260507214005 48 1 14.8 29.5 0.00 0.38 0.00 92 1004.0
20260507213504 48 342 14.8 23.5 0.00 0.40 0.00 92 1004.1
20260507213005 48 310 14.8 23.5 0.00 0.52 0.00 92 1003.8
20260507212005 48 250 12.2 23.5 0.00 0.52 0.00 92 1003.5
20260507211504 48 237 13.9 20.0 0.00 0.52 0.00 92 1003.5
20260507211006 48 233 13.0 25.2 0.00 0.52 0.00 92 1003.4
20260507210504 48 240 13.0 25.2 0.00 0.52 0.00 92 1003.5
20260507210006 49 243 15.6 26.1 0.00 0.53 0.00 92 1003.3
20260507205505 49 242 15.6 26.1 0.00 0.55 0.00 93 1003.2
20260507204504 49 242 16.5 26.9 0.00 0.55 0.00 94 1003.1
20260507204005 49 248 15.6 21.7 0.00 0.55 0.00 94 1003.3
20260507203504 49 240 12.2 26.1 0.00 0.55 0.00 94 1003.4
20260507203006 49 245 12.2 26.1 0.00 0.55 0.00 94 1003.7
20260507202504 49 238 15.6 22.6 0.00 0.55 0.00 93 1003.6
20260507202005 49 231 15.6 22.6 0.00 0.55 0.00 93 1003.8
20260507201504 49 244 13.0 21.7 0.00 0.55 0.00 93 1003.6
20260507201005 49 238 13.0 21.7 0.00 0.55 0.00 93 1004.0
20260507200504 49 217 14.8 23.5 0.00 0.55 0.00 92 1003.7
20260507200005 49 224 16.5 23.5 0.00 0.55 0.00 92 1003.9
20260507195504 49 236 14.8 20.9 0.00 0.55 0.00 91 1003.9
20260507195006 50 236 12.2 27.8 0.00 0.56 0.00 91 1003.9
20260507194505 50 244 13.0 27.8 0.00 0.56 0.00 90 1004.0
20260507194005 50 252 10.4 25.2 0.00 0.56 0.00 89 1003.9
20260507193504 51 254 16.5 25.2 0.00 0.56 0.00 89 1004.0
20260507193005 51 255 13.0 26.1 0.00 0.56 0.00 88 1003.7
20260507192504 51 249 15.6 26.1 0.00 0.56 0.00 88 1003.9
20260507192005 51 237 15.6 24.3 0.00 0.56 0.00 87 1003.6
20260507191504 51 231 14.8 24.3 0.00 0.56 0.00 87 1003.8
20260507191005 52 223 14.8 23.5 0.00 0.56 0.00 87 1003.8
20260507190504 52 230 15.6 23.5 0.00 0.56 0.00 87 1004.0